| time (UTC) | temp F | wind direction | speed knots | gust knots | rain 1hr in | rain 24hr in | rain mn in | humidity % | barometer mb |
| 20260902211026 | 99 | 0 | 4.3 | 13.0 | 0.00 | 0.00 | 0.00 | 37 | 1012.9 |
| 20260902210526 | 99 | 131 | 3.5 | 9.6 | 0.00 | 0.00 | 0.00 | 37 | 1012.9 |
| 20260902210046 | 99 | 140 | 0.9 | 11.3 | 0.00 | 0.00 | 0.00 | 38 | 1013.0 |
| 20260902205525 | 99 | 247 | 3.5 | 11.3 | 0.00 | 0.00 | 0.00 | 38 | 1013.1 |
| 20260902205026 | 99 | 314 | 1.7 | 11.3 | 0.00 | 0.00 | 0.00 | 36 | 1013.1 |
| 20260902204549 | 98 | 0 | 1.7 | 7.8 | 0.00 | 0.00 | 0.00 | 38 | 1013.3 |
| 20260902204025 | 99 | 17 | 1.7 | 7.0 | 0.00 | 0.00 | 0.00 | 36 | 1013.4 |
| 20260902203526 | 100 | 173 | 1.7 | 6.1 | 0.00 | 0.00 | 0.00 | 36 | 1013.3 |
| 20260902203048 | 100 | 292 | 0.9 | 13.0 | 0.00 | 0.00 | 0.00 | 37 | 1013.4 |
| 20260902202523 | 98 | 168 | 1.7 | 13.0 | 0.00 | 0.00 | 0.00 | 39 | 1013.5 |
| 20260902202025 | 99 | 187 | 3.5 | 8.7 | 0.00 | 0.00 | 0.00 | 37 | 1013.6 |
| 20260902201554 | 99 | 103 | 2.6 | 7.8 | 0.00 | 0.00 | 0.00 | 38 | 1013.5 |
| 20260902201025 | 98 | 182 | 4.3 | 7.8 | 0.00 | 0.00 | 0.00 | 39 | 1013.7 |
| 20260902200525 | 98 | 142 | 2.6 | 9.6 | 0.00 | 0.00 | 0.00 | 40 | 1013.7 |
| 20260902200048 | 98 | 103 | 0.9 | 9.6 | 0.00 | 0.00 | 0.00 | 39 | 1013.9 |
| 20260902195524 | 99 | 252 | 1.7 | 9.6 | 0.00 | 0.00 | 0.00 | 38 | 1013.9 |
| 20260902195022 | 99 | 0 | 1.7 | 7.8 | 0.00 | 0.00 | 0.00 | 39 | 1013.9 |
| 20260902194546 | 100 | 159 | 1.7 | 7.8 | 0.00 | 0.00 | 0.00 | 38 | 1014.0 |
| 20260902194026 | 100 | 190 | 2.6 | 7.8 | 0.00 | 0.00 | 0.00 | 37 | 1014.1 |
| 20260902193525 | 100 | 0 | 1.7 | 8.7 | 0.00 | 0.00 | 0.00 | 37 | 1014.2 |
| 20260902193054 | 100 | 242 | 0.9 | 8.7 | 0.00 | 0.00 | 0.00 | 36 | 1014.2 |
| 20260902192525 | 100 | 275 | 1.7 | 9.6 | 0.00 | 0.00 | 0.00 | 39 | 1014.2 |
| 20260902192025 | 100 | 108 | 1.7 | 9.6 | 0.00 | 0.00 | 0.00 | 37 | 1014.2 |
| 20260902191542 | 99 | 271 | 2.6 | 13.0 | 0.00 | 0.00 | 0.00 | 39 | 1014.3 |
| 20260902191025 | 98 | 196 | 6.1 | 13.0 | 0.00 | 0.00 | 0.00 | 40 | 1014.4 |
| 20260902190525 | 99 | 119 | 1.7 | 13.9 | 0.00 | 0.00 | 0.00 | 39 | 1014.4 |
| 20260902190043 | 98 | 173 | 4.3 | 13.9 | 0.00 | 0.00 | 0.00 | 40 | 1014.6 |
| 20260902185525 | 99 | 213 | 2.6 | 9.6 | 0.00 | 0.00 | 0.00 | 38 | 1014.6 |
| 20260902185024 | 99 | 0 | 1.7 | 9.6 | 0.00 | 0.00 | 0.00 | 40 | 1014.6 |
| 20260902184606 | 98 | 146 | 2.6 | 9.6 | 0.00 | 0.00 | 0.00 | 40 | 1014.6 |
| 20260902184027 | 98 | 342 | 2.6 | 12.2 | 0.00 | 0.00 | 0.00 | 40 | 1014.8 |
| 20260902183524 | 99 | 189 | 2.6 | 12.2 | 0.00 | 0.00 | 0.00 | 39 | 1014.9 |
| 20260902183056 | 99 | 163 | 3.5 | 12.2 | 0.00 | 0.00 | 0.00 | 40 | 1014.9 |
| 20260902182526 | 98 | 178 | 1.7 | 10.4 | 0.00 | 0.00 | 0.00 | 42 | 1015.0 |
| 20260902182026 | 98 | 163 | 3.5 | 10.4 | 0.00 | 0.00 | 0.00 | 41 | 1015.1 |
| 20260902181545 | 98 | 153 | 2.6 | 9.6 | 0.00 | 0.00 | 0.00 | 41 | 1015.1 |
| 20260902181026 | 98 | 211 | 1.7 | 9.6 | 0.00 | 0.00 | 0.00 | 42 | 1015.1 |
| 20260902180525 | 98 | 302 | 1.7 | 9.6 | 0.00 | 0.00 | 0.00 | 43 | 1015.2 |
| 20260902180044 | 96 | 202 | 2.6 | 9.6 | 0.00 | 0.00 | 0.00 | 43 | 1015.3 |
| 20260902175524 | 97 | 144 | 1.7 | 11.3 | 0.00 | 0.00 | 0.00 | 43 | 1015.3 |
| 20260902175025 | 97 | 281 | 4.3 | 11.3 | 0.00 | 0.00 | 0.00 | 44 | 1015.3 |
| 20260902174541 | 96 | 288 | 2.6 | 9.6 | 0.00 | 0.00 | 0.00 | 44 | 1015.4 |
| 20260902174025 | 97 | 210 | 1.7 | 13.0 | 0.00 | 0.00 | 0.00 | 43 | 1015.4 |
| 20260902173523 | 96 | 245 | 2.6 | 13.0 | 0.00 | 0.00 | 0.00 | 46 | 1015.5 |
| 20260902173047 | 95 | 150 | 3.5 | 13.0 | 0.00 | 0.00 | 0.00 | 46 | 1015.5 |
| 20260902172528 | 95 | 213 | 4.3 | 13.0 | 0.00 | 0.00 | 0.00 | 46 | 1015.5 |
| 20260902172028 | 95 | 165 | 1.7 | 8.7 | 0.00 | 0.00 | 0.00 | 46 | 1015.6 |
| 20260902171553 | 95 | 163 | 2.6 | 8.7 | 0.00 | 0.00 | 0.00 | 46 | 1015.8 |
| 20260902171026 | 95 | 198 | 2.6 | 10.4 | 0.00 | 0.00 | 0.00 | 46 | 1015.7 |
| 20260902170526 | 95 | 198 | 2.6 | 11.3 | 0.00 | 0.00 | 0.00 | 47 | 1015.8 |
| 20260902170041 | 94 | 171 | 0.9 | 14.8 | 0.00 | 0.00 | 0.00 | 49 | 1015.9 |
| 20260902165525 | 94 | 144 | 4.3 | 14.8 | 0.00 | 0.00 | 0.00 | 48 | 1016.0 |
| 20260902165025 | 94 | 157 | 3.5 | 9.6 | 0.00 | 0.00 | 0.00 | 48 | 1015.9 |
| 20260902164543 | 94 | 150 | 0.9 | 10.4 | 0.00 | 0.00 | 0.00 | 49 | 1015.9 |
| 20260902164023 | 93 | 142 | 3.5 | 10.4 | 0.00 | 0.00 | 0.00 | 50 | 1016.0 |
| 20260902163523 | 93 | 175 | 2.6 | 9.6 | 0.00 | 0.00 | 0.00 | 50 | 1016.0 |
| 20260902163056 | 93 | 164 | 1.7 | 8.7 | 0.00 | 0.00 | 0.00 | 50 | 1016.1 |
| 20260902162524 | 93 | 279 | 2.6 | 8.7 | 0.00 | 0.00 | 0.00 | 51 | 1016.0 |
| 20260902162024 | 92 | 111 | 2.6 | 7.8 | 0.00 | 0.00 | 0.00 | 51 | 1016.1 |
| 20260902161545 | 92 | 317 | 1.7 | 8.7 | 0.00 | 0.00 | 0.00 | 52 | 1016.0 |
| 20260902161023 | 92 | 153 | 1.7 | 8.7 | 0.00 | 0.00 | 0.00 | 52 | 1016.1 |
| 20260902160525 | 91 | 197 | 1.7 | 8.7 | 0.00 | 0.00 | 0.00 | 53 | 1016.1 |
| 20260902160046 | 91 | 149 | 3.5 | 8.7 | 0.00 | 0.00 | 0.00 | 54 | 1016.1 |
| 20260902155525 | 90 | 187 | 3.5 | 10.4 | 0.00 | 0.00 | 0.00 | 54 | 1016.1 |
| 20260902155023 | 90 | 329 | 3.5 | 12.2 | 0.00 | 0.00 | 0.00 | 56 | 1016.1 |
| 20260902154545 | 89 | 160 | 3.5 | 12.2 | 0.00 | 0.00 | 0.00 | 55 | 1016.1 |
| 20260902154024 | 89 | 0 | 0.9 | 10.4 | 0.00 | 0.00 | 0.00 | 56 | 1016.1 |
| 20260902153525 | 88 | 0 | 1.7 | 9.6 | 0.00 | 0.00 | 0.00 | 58 | 1016.2 |
| 20260902153051 | 88 | 180 | 3.5 | 10.4 | 0.00 | 0.00 | 0.00 | 58 | 1016.2 |
| 20260902152526 | 88 | 155 | 0.9 | 11.3 | 0.00 | 0.00 | 0.00 | 59 | 1016.1 |
| 20260902152025 | 87 | 150 | 3.5 | 11.3 | 0.00 | 0.00 | 0.00 | 59 | 1016.1 |
| 20260902151542 | 86 | 148 | 3.5 | 10.4 | 0.00 | 0.00 | 0.00 | 60 | 1016.1 |
| 20260902151024 | 86 | 250 | 2.6 | 10.4 | 0.00 | 0.00 | 0.00 | 60 | 1016.1 |
| 20260902150526 | 86 | 165 | 2.6 | 10.4 | 0.00 | 0.00 | 0.00 | 61 | 1016.1 |
| 20260902150047 | 85 | 0 | 1.7 | 10.4 | 0.00 | 0.00 | 0.00 | 62 | 1016.1 |
| 20260902145524 | 85 | 154 | 3.5 | 9.6 | 0.00 | 0.00 | 0.00 | 62 | 1016.1 |
| 20260902145026 | 84 | 194 | 2.6 | 13.0 | 0.00 | 0.00 | 0.00 | 63 | 1016.1 |
| 20260902144545 | 84 | 167 | 1.7 | 13.0 | 0.00 | 0.00 | 0.00 | 63 | 1016.0 |
| 20260902144024 | 83 | 162 | 0.9 | 9.6 | 0.00 | 0.00 | 0.00 | 64 | 1016.1 |
| 20260902143525 | 83 | 165 | 2.6 | 12.2 | 0.00 | 0.00 | 0.00 | 64 | 1016.1 |
| 20260902143044 | 83 | 165 | 2.6 | 12.2 | 0.00 | 0.00 | 0.00 | 63 | 1016.2 |
| 20260902142524 | 84 | 0 | 0.9 | 11.3 | 0.00 | 0.00 | 0.00 | 63 | 1016.3 |
| 20260902142024 | 83 | 166 | 2.6 | 7.8 | 0.00 | 0.00 | 0.00 | 63 | 1016.3 |
| 20260902141539 | 83 | 195 | 1.7 | 7.8 | 0.00 | 0.00 | 0.00 | 63 | 1016.3 |
| 20260902141027 | 82 | 138 | 0.9 | 9.6 | 0.00 | 0.00 | 0.00 | 64 | 1016.3 |
| 20260902140523 | 82 | 247 | 1.7 | 10.4 | 0.00 | 0.00 | 0.00 | 65 | 1016.2 |
| 20260902140044 | 81 | 175 | 1.7 | 10.4 | 0.00 | 0.00 | 0.00 | 66 | 1016.3 |
| 20260902135524 | 81 | 188 | 2.6 | 9.6 | 0.00 | 0.00 | 0.00 | 66 | 1016.3 |
| 20260902135025 | 80 | 155 | 2.6 | 8.7 | 0.00 | 0.00 | 0.00 | 67 | 1016.2 |
| 20260902134552 | 80 | 180 | 0.9 | 7.8 | 0.00 | 0.00 | 0.00 | 68 | 1016.2 |
| 20260902134025 | 79 | 182 | 1.7 | 7.8 | 0.00 | 0.00 | 0.00 | 68 | 1016.3 |
| 20260902133524 | 79 | 150 | 1.7 | 6.1 | 0.00 | 0.00 | 0.00 | 69 | 1016.3 |
| 20260902133047 | 78 | 166 | 0.9 | 6.1 | 0.00 | 0.00 | 0.00 | 69 | 1016.3 |
| 20260902132525 | 78 | 168 | 1.7 | 6.1 | 0.00 | 0.00 | 0.00 | 70 | 1016.3 |
| 20260902132027 | 78 | 152 | 2.6 | 5.2 | 0.00 | 0.00 | 0.00 | 69 | 1016.2 |
| 20260902131545 | 78 | 190 | 1.7 | 7.0 | 0.00 | 0.00 | 0.00 | 70 | 1016.2 |
| 20260902131025 | 77 | 169 | 1.7 | 7.0 | 0.00 | 0.00 | 0.00 | 70 | 1016.1 |
| 20260902130526 | 77 | 147 | 0.9 | 7.0 | 0.00 | 0.00 | 0.00 | 70 | 1016.1 |
| 20260902130043 | 77 | 159 | 2.6 | 7.0 | 0.00 | 0.00 | 0.00 | 71 | 1016.1 |
| 20260902125529 | 76 | 169 | 0.9 | 4.3 | 0.00 | 0.00 | 0.00 | 72 | 1016.0 |
| 20260902125025 | 76 | 163 | 0.9 | 6.1 | 0.00 | 0.00 | 0.00 | 72 | 1015.9 |
| 20260902124548 | 76 | 132 | 0.9 | 6.1 | 0.00 | 0.00 | 0.00 | 73 | 1015.9 |
| 20260902124022 | 76 | 0 | 0.9 | 4.3 | 0.00 | 0.00 | 0.00 | 73 | 1015.8 |
| 20260902123524 | 75 | 178 | 0.0 | 5.2 | 0.00 | 0.00 | 0.00 | 73 | 1015.8 |
| 20260902123053 | 75 | 184 | 1.7 | 5.2 | 0.00 | 0.00 | 0.00 | 73 | 1015.8 |
| 20260902122527 | 75 | 184 | 0.9 | 5.2 | 0.00 | 0.00 | 0.00 | 73 | 1015.7 |
| 20260902122026 | 75 | 0 | 0.9 | 7.0 | 0.00 | 0.00 | 0.00 | 73 | 1015.7 |
| 20260902121544 | 75 | 0 | 0.0 | 7.0 | 0.00 | 0.00 | 0.00 | 73 | 1015.7 |
| 20260902121025 | 75 | 157 | 0.0 | 3.5 | 0.00 | 0.00 | 0.00 | 73 | 1015.7 |
| 20260902120526 | 75 | 180 | 0.0 | 3.5 | 0.00 | 0.00 | 0.00 | 73 | 1015.5 |
| 20260902120053 | 75 | 0 | 0.9 | 4.3 | 0.00 | 0.00 | 0.00 | 72 | 1015.6 |
| 20260902115524 | 75 | 0 | 0.9 | 4.3 | 0.00 | 0.00 | 0.00 | 72 | 1015.6 |
| 20260902115024 | 75 | 160 | 1.7 | 4.3 | 0.00 | 0.00 | 0.00 | 71 | 1015.5 |
| 20260902114546 | 76 | 0 | 0.0 | 4.3 | 0.00 | 0.00 | 0.00 | 71 | 1015.5 |
| 20260902114023 | 76 | 0 | 0.9 | 4.3 | 0.00 | 0.00 | 0.00 | 71 | 1015.4 |
| 20260902113524 | 76 | 148 | 0.9 | 5.2 | 0.00 | 0.00 | 0.00 | 70 | 1015.4 |
| 20260902113044 | 76 | 161 | 1.7 | 6.1 | 0.00 | 0.00 | 0.00 | 70 | 1015.5 |
| 20260902112527 | 76 | 169 | 2.6 | 6.1 | 0.00 | 0.00 | 0.00 | 70 | 1015.4 |
| 20260902112024 | 76 | 0 | 1.7 | 4.3 | 0.00 | 0.00 | 0.00 | 70 | 1015.4 |
| 20260902111540 | 76 | 185 | 0.9 | 4.3 | 0.00 | 0.00 | 0.00 | 70 | 1015.4 |
| 20260902111026 | 76 | 161 | 0.0 | 5.2 | 0.00 | 0.00 | 0.00 | 69 | 1015.4 |
| 20260902110527 | 76 | 160 | 0.9 | 5.2 | 0.00 | 0.00 | 0.00 | 69 | 1015.3 |
| 20260902110047 | 76 | 0 | 1.7 | 5.2 | 0.00 | 0.00 | 0.00 | 69 | 1015.3 |
| 20260902105525 | 76 | 169 | 0.9 | 4.3 | 0.00 | 0.00 | 0.00 | 69 | 1015.3 |
| 20260902105023 | 77 | 0 | 1.7 | 7.8 | 0.00 | 0.00 | 0.00 | 69 | 1015.3 |
| 20260902104542 | 77 | 0 | 1.7 | 7.8 | 0.00 | 0.00 | 0.00 | 68 | 1015.3 |
| 20260902104025 | 77 | 0 | 1.7 | 5.2 | 0.00 | 0.00 | 0.00 | 67 | 1015.2 |
| 20260902103525 | 77 | 175 | 0.9 | 5.2 | 0.00 | 0.00 | 0.00 | 67 | 1015.3 |
| 20260902103040 | 77 | 160 | 0.9 | 3.5 | 0.00 | 0.00 | 0.00 | 67 | 1015.2 |
| 20260902102530 | 77 | 0 | 0.0 | 2.6 | 0.00 | 0.00 | 0.00 | 66 | 1015.2 |
| 20260902102027 | 78 | 0 | 0.9 | 4.3 | 0.00 | 0.00 | 0.00 | 66 | 1015.1 |
| 20260902101547 | 78 | 0 | 0.0 | 6.1 | 0.00 | 0.00 | 0.00 | 65 | 1015.3 |
| 20260902101026 | 78 | 0 | 0.9 | 7.0 | 0.00 | 0.00 | 0.00 | 65 | 1015.1 |
| 20260902100526 | 78 | 168 | 1.7 | 7.0 | 0.00 | 0.00 | 0.00 | 65 | 1015.1 |
| 20260902100047 | 78 | 171 | 1.7 | 7.0 | 0.00 | 0.00 | 0.00 | 65 | 1015.0 |
| 20260902095526 | 78 | 179 | 0.9 | 6.1 | 0.00 | 0.00 | 0.00 | 66 | 1015.1 |
| 20260902095023 | 78 | 180 | 0.0 | 6.1 | 0.00 | 0.00 | 0.00 | 66 | 1015.1 |
| 20260902094545 | 78 | 165 | 0.9 | 3.5 | 0.00 | 0.00 | 0.00 | 66 | 1015.0 |
| 20260902094024 | 78 | 0 | 0.0 | 1.7 | 0.00 | 0.00 | 0.00 | 65 | 1014.9 |
| 20260902093524 | 78 | 0 | 0.0 | 3.5 | 0.00 | 0.00 | 0.00 | 65 | 1015.0 |
| 20260902093057 | 78 | 0 | 0.9 | 4.3 | 0.00 | 0.00 | 0.00 | 64 | 1014.9 |
| 20260902092524 | 79 | 166 | 0.9 | 7.0 | 0.00 | 0.00 | 0.00 | 63 | 1015.0 |
| 20260902092027 | 79 | 165 | 0.9 | 7.0 | 0.00 | 0.00 | 0.00 | 62 | 1014.9 |
| 20260902091546 | 80 | 148 | 0.9 | 4.3 | 0.00 | 0.00 | 0.00 | 62 | 1015.0 |
| 20260902091023 | 80 | 148 | 0.9 | 3.5 | 0.00 | 0.00 | 0.00 | 62 | 1014.8 |
| 20260902090531 | 80 | 245 | 0.0 | 4.3 | 0.00 | 0.00 | 0.00 | 60 | 1014.5 |
| 20260902090045 | 80 | 246 | 0.0 | 4.3 | 0.00 | 0.00 | 0.00 | 60 | 1014.5 |
| 20260902085525 | 81 | 156 | 0.0 | 6.1 | 0.00 | 0.00 | 0.00 | 59 | 1014.6 |
| 20260902085025 | 81 | 170 | 0.0 | 6.1 | 0.00 | 0.00 | 0.00 | 59 | 1014.5 |
| 20260902084546 | 81 | 0 | 0.9 | 6.1 | 0.00 | 0.00 | 0.00 | 58 | 1014.4 |
| 20260902084024 | 81 | 0 | 1.7 | 7.8 | 0.00 | 0.00 | 0.00 | 58 | 1014.5 |
| 20260902083526 | 82 | 0 | 2.6 | 7.8 | 0.00 | 0.00 | 0.00 | 58 | 1014.5 |
| 20260902083041 | 82 | 161 | 2.6 | 7.8 | 0.00 | 0.00 | 0.00 | 58 | 1014.3 |
| 20260902082524 | 81 | 165 | 0.9 | 5.2 | 0.00 | 0.00 | 0.00 | 58 | 1014.2 |
| 20260902082023 | 82 | 149 | 0.9 | 5.2 | 0.00 | 0.00 | 0.00 | 58 | 1014.2 |
| 20260902081547 | 82 | 0 | 0.0 | 4.3 | 0.00 | 0.00 | 0.00 | 57 | 1014.3 |
| 20260902081023 | 82 | 179 | 0.0 | 5.2 | 0.00 | 0.00 | 0.00 | 57 | 1014.2 |
| 20260902080523 | 82 | 0 | 1.7 | 5.2 | 0.00 | 0.00 | 0.00 | 57 | 1014.2 |
| 20260902080046 | 82 | 0 | 0.9 | 3.5 | 0.00 | 0.00 | 0.00 | 57 | 1014.2 |
| 20260902075525 | 82 | 274 | 0.0 | 3.5 | 0.00 | 0.00 | 0.00 | 56 | 1014.3 |
| 20260902075025 | 82 | 0 | 0.0 | 8.7 | 0.00 | 0.00 | 0.00 | 56 | 1014.2 |
| 20260902074554 | 83 | 188 | 0.0 | 8.7 | 0.00 | 0.00 | 0.00 | 56 | 1014.2 |
| 20260902074024 | 83 | 171 | 0.9 | 7.0 | 0.00 | 0.00 | 0.00 | 55 | 1014.1 |
| 20260902073524 | 83 | 272 | 1.7 | 7.0 | 0.00 | 0.00 | 0.00 | 55 | 1014.2 |
| 20260902073040 | 83 | 208 | 0.9 | 9.6 | 0.00 | 0.00 | 0.00 | 55 | 1014.2 |
| 20260902072523 | 83 | 163 | 1.7 | 9.6 | 0.00 | 0.00 | 0.00 | 55 | 1014.2 |
| 20260902072024 | 83 | 0 | 2.6 | 7.0 | 0.00 | 0.00 | 0.00 | 55 | 1014.3 |
| 20260902071543 | 83 | 210 | 0.9 | 12.2 | 0.00 | 0.00 | 0.00 | 55 | 1014.2 |
| 20260902071024 | 83 | 186 | 1.7 | 12.2 | 0.00 | 0.00 | 0.00 | 55 | 1014.3 |
| 20260902070525 | 83 | 181 | 2.6 | 10.4 | 0.00 | 0.00 | 0.00 | 55 | 1014.4 |
| 20260902070047 | 82 | 0 | 1.7 | 7.8 | 0.00 | 0.00 | 0.00 | 56 | 1014.3 |
| 20260902065525 | 81 | 205 | 0.9 | 7.8 | 0.00 | 0.00 | 0.00 | 58 | 1014.3 |
| 20260902065026 | 81 | 211 | 0.9 | 8.7 | 0.00 | 0.00 | 0.00 | 59 | 1014.3 |
| 20260902064545 | 80 | 0 | 0.9 | 8.7 | 0.00 | 0.00 | 0.00 | 60 | 1014.4 |
| 20260902064023 | 80 | 186 | 0.9 | 5.2 | 0.00 | 0.00 | 0.00 | 61 | 1014.5 |
| 20260902063524 | 80 | 0 | 0.0 | 1.7 | 0.00 | 0.00 | 0.00 | 61 | 1014.5 |
| 20260902063046 | 80 | 0 | 0.0 | 1.7 | 0.00 | 0.00 | 0.00 | 60 | 1014.5 |
| 20260902062525 | 80 | 0 | 0.0 | 2.6 | 0.00 | 0.00 | 0.00 | 60 | 1014.4 |
| 20260902062023 | 80 | 0 | 0.0 | 2.6 | 0.00 | 0.00 | 0.00 | 59 | 1014.5 |
| 20260902061558 | 80 | 0 | 0.0 | 0.9 | 0.00 | 0.00 | 0.00 | 59 | 1014.4 |
| 20260902061025 | 81 | 0 | 0.0 | 0.9 | 0.00 | 0.00 | 0.00 | 59 | 1014.3 |
| 20260902060523 | 81 | 0 | 0.0 | 1.7 | 0.00 | 0.00 | 0.00 | 59 | 1014.4 |
| 20260902060055 | 81 | 0 | 0.0 | 1.7 | 0.00 | 0.00 | 0.00 | 58 | 1014.5 |
| 20260902055524 | 81 | 0 | 0.0 | 3.5 | 0.00 | 0.00 | 0.00 | 58 | 1014.4 |
| 20260902055025 | 81 | 0 | 0.0 | 3.5 | 0.00 | 0.00 | 0.00 | 58 | 1014.5 |
| 20260902054608 | 82 | 0 | 0.0 | 3.5 | 0.00 | 0.00 | 0.00 | 57 | 1014.5 |
| 20260902054024 | 82 | 0 | 0.0 | 3.5 | 0.00 | 0.00 | 0.00 | 57 | 1014.6 |
| 20260902053524 | 82 | 180 | 0.0 | 2.6 | 0.00 | 0.00 | 0.00 | 56 | 1014.4 |
| 20260902053100 | 83 | 0 | 0.0 | 1.7 | 0.00 | 0.00 | 0.00 | 55 | 1014.5 |
| 20260902052521 | 83 | 0 | 0.0 | 2.6 | 0.00 | 0.00 | 0.00 | 55 | 1014.5 |
| 20260902052024 | 83 | 0 | 0.0 | 3.5 | 0.00 | 0.00 | 0.00 | 54 | 1014.4 |
| 20260902051542 | 83 | 225 | 0.0 | 4.3 | 0.00 | 0.00 | 0.00 | 54 | 1014.4 |
| 20260902051028 | 83 | 168 | 0.0 | 4.3 | 0.00 | 0.00 | 0.00 | 54 | 1014.5 |
| 20260902050524 | 83 | 0 | 0.9 | 6.1 | 0.00 | 0.00 | 0.00 | 54 | 1014.5 |
| 20260902050042 | 84 | 173 | 0.9 | 6.1 | 0.00 | 0.00 | 0.00 | 54 | 1014.5 |
| 20260902045523 | 84 | 186 | 1.7 | 6.1 | 0.00 | 0.00 | 0.00 | 53 | 1014.5 |
| 20260902045024 | 84 | 217 | 0.9 | 5.2 | 0.00 | 0.00 | 0.00 | 53 | 1014.5 |
| 20260902044552 | 84 | 0 | 0.0 | 6.1 | 0.00 | 0.00 | 0.00 | 53 | 1014.5 |
| 20260902044024 | 84 | 211 | 0.9 | 7.0 | 0.00 | 0.00 | 0.00 | 53 | 1014.5 |
| 20260902043525 | 84 | 162 | 1.7 | 7.0 | 0.00 | 0.00 | 0.00 | 53 | 1014.5 |
| 20260902043046 | 84 | 165 | 1.7 | 8.7 | 0.00 | 0.00 | 0.00 | 53 | 1014.4 |
| 20260902042525 | 84 | 208 | 1.7 | 8.7 | 0.00 | 0.00 | 0.00 | 53 | 1014.4 |
| 20260902042024 | 84 | 0 | 1.7 | 5.2 | 0.00 | 0.00 | 0.00 | 53 | 1014.5 |
| 20260902041541 | 84 | 165 | 0.9 | 6.1 | 0.00 | 0.00 | 0.00 | 53 | 1014.5 |
| 20260902041025 | 84 | 0 | 0.9 | 6.1 | 0.00 | 0.00 | 0.00 | 53 | 1014.5 |
| 20260902040524 | 84 | 176 | 0.0 | 6.1 | 0.00 | 0.00 | 0.00 | 53 | 1014.5 |
| 20260902040048 | 84 | 173 | 0.0 | 4.3 | 0.00 | 0.00 | 0.00 | 53 | 1014.6 |
| 20260902035523 | 84 | 0 | 1.7 | 5.2 | 0.00 | 0.00 | 0.00 | 53 | 1014.7 |
| 20260902035025 | 85 | 171 | 0.9 | 7.0 | 0.00 | 0.00 | 0.00 | 52 | 1014.7 |
| 20260902034548 | 85 | 153 | 2.6 | 7.0 | 0.00 | 0.00 | 0.00 | 52 | 1014.6 |
| 20260902034025 | 85 | 156 | 2.6 | 7.0 | 0.00 | 0.00 | 0.00 | 51 | 1014.6 |
| 20260902033523 | 85 | 181 | 1.7 | 7.8 | 0.00 | 0.00 | 0.00 | 51 | 1014.6 |
| 20260902033047 | 85 | 170 | 2.6 | 8.7 | 0.00 | 0.00 | 0.00 | 51 | 1014.6 |
| 20260902032524 | 85 | 169 | 1.7 | 8.7 | 0.00 | 0.00 | 0.00 | 51 | 1014.6 |
| 20260902032023 | 85 | 162 | 1.7 | 7.8 | 0.00 | 0.00 | 0.00 | 51 | 1014.5 |
| 20260902031547 | 85 | 173 | 2.6 | 7.0 | 0.00 | 0.00 | 0.00 | 52 | 1014.4 |
| 20260902031025 | 85 | 157 | 0.9 | 5.2 | 0.00 | 0.00 | 0.00 | 52 | 1014.5 |
| 20260902030525 | 85 | 0 | 0.0 | 5.2 | 0.00 | 0.00 | 0.00 | 52 | 1014.4 |
| 20260902030042 | 85 | 160 | 0.9 | 3.5 | 0.00 | 0.00 | 0.00 | 52 | 1014.3 |
| 20260902025525 | 85 | 182 | 0.9 | 3.5 | 0.00 | 0.00 | 0.00 | 52 | 1014.1 |
| 20260902025023 | 85 | 166 | 0.0 | 4.3 | 0.00 | 0.00 | 0.00 | 52 | 1014.1 |
| 20260902024548 | 86 | 0 | 0.9 | 4.3 | 0.00 | 0.00 | 0.00 | 52 | 1014.0 |
| 20260902024023 | 86 | 166 | 0.0 | 4.3 | 0.00 | 0.00 | 0.00 | 52 | 1014.0 |
| 20260902023523 | 86 | 156 | 0.9 | 4.3 | 0.00 | 0.00 | 0.00 | 51 | 1014.1 |
| 20260902023055 | 86 | 132 | 0.0 | 3.5 | 0.00 | 0.00 | 0.00 | 51 | 1014.1 |
| 20260902022525 | 86 | 178 | 0.0 | 2.6 | 0.00 | 0.00 | 0.00 | 51 | 1014.1 |
| 20260902022025 | 86 | 0 | 0.0 | 2.6 | 0.00 | 0.00 | 0.00 | 51 | 1014.0 |
| 20260902021545 | 87 | 172 | 0.0 | 2.6 | 0.00 | 0.00 | 0.00 | 50 | 1014.1 |
| 20260902021024 | 87 | 153 | 0.0 | 2.6 | 0.00 | 0.00 | 0.00 | 50 | 1014.0 |
| 20260902020524 | 87 | 0 | 0.0 | 4.3 | 0.00 | 0.00 | 0.00 | 49 | 1014.0 |
| 20260902020042 | 87 | 0 | 0.0 | 4.3 | 0.00 | 0.00 | 0.00 | 49 | 1014.0 |
| 20260902015526 | 87 | 0 | 0.0 | 4.3 | 0.00 | 0.00 | 0.00 | 49 | 1013.9 |
| 20260902015024 | 88 | 0 | 0.0 | 3.5 | 0.00 | 0.00 | 0.00 | 48 | 1013.9 |
| 20260902014540 | 88 | 169 | 0.0 | 3.5 | 0.00 | 0.00 | 0.00 | 48 | 1013.8 |
| 20260902014027 | 88 | 169 | 0.0 | 3.5 | 0.00 | 0.00 | 0.00 | 48 | 1013.7 |
| 20260902013524 | 88 | 172 | 0.0 | 3.5 | 0.00 | 0.00 | 0.00 | 48 | 1013.7 |
| 20260902013053 | 88 | 0 | 0.0 | 3.5 | 0.00 | 0.00 | 0.00 | 47 | 1013.7 |
| 20260902012524 | 89 | 0 | 0.0 | 1.7 | 0.00 | 0.00 | 0.00 | 47 | 1013.6 |
| 20260902012024 | 89 | 0 | 0.0 | 2.6 | 0.00 | 0.00 | 0.00 | 47 | 1013.6 |
| 20260902011547 | 89 | 0 | 0.0 | 2.6 | 0.00 | 0.00 | 0.00 | 46 | 1013.7 |
| 20260902011024 | 90 | 0 | 0.0 | 2.6 | 0.00 | 0.00 | 0.00 | 46 | 1013.7 |
| 20260902010525 | 90 | 165 | 0.0 | 2.6 | 0.00 | 0.00 | 0.00 | 45 | 1013.6 |
| 20260902010045 | 90 | 0 | 0.0 | 2.6 | 0.00 | 0.00 | 0.00 | 45 | 1013.6 |
| 20260902005525 | 91 | 168 | 0.0 | 0.9 | 0.00 | 0.00 | 0.00 | 45 | 1013.6 |
| 20260902005024 | 91 | 0 | 0.0 | 1.7 | 0.00 | 0.00 | 0.00 | 45 | 1013.5 |
| 20260902004546 | 91 | 0 | 0.0 | 2.6 | 0.00 | 0.00 | 0.00 | 44 | 1013.7 |
| 20260902004024 | 92 | 168 | 0.0 | 3.5 | 0.00 | 0.00 | 0.00 | 44 | 1013.6 |
| 20260902003524 | 92 | 0 | 0.0 | 3.5 | 0.00 | 0.00 | 0.00 | 43 | 1013.6 |
| 20260902003043 | 93 | 0 | 0.0 | 4.3 | 0.00 | 0.00 | 0.00 | 43 | 1013.7 |
| 20260902002522 | 93 | 0 | 0.0 | 4.3 | 0.00 | 0.00 | 0.00 | 42 | 1013.6 |
| 20260902002025 | 94 | 187 | 0.0 | 4.3 | 0.00 | 0.00 | 0.00 | 41 | 1013.8 |
| 20260902001602 | 94 | 0 | 0.9 | 3.5 | 0.00 | 0.00 | 0.00 | 40 | 1013.7 |
| 20260902001023 | 94 | 176 | 0.0 | 4.3 | 0.00 | 0.00 | 0.00 | 40 | 1013.8 |
| 20260902000523 | 95 | 148 | 0.9 | 4.3 | 0.00 | 0.00 | 0.00 | 40 | 1013.7 |
| 20260902000045 | 95 | 0 | 0.9 | 4.3 | 0.00 | 0.00 | 0.00 | 39 | 1013.7 |
| 20260901235525 | 95 | 165 | 0.9 | 7.0 | 0.00 | 0.00 | 0.00 | 38 | 1013.8 |
| 20260901235027 | 96 | 158 | 0.0 | 7.0 | 0.00 | 0.00 | 0.00 | 38 | 1013.8 |
| 20260901234541 | 96 | 158 | 0.9 | 7.0 | 0.00 | 0.00 | 0.00 | 38 | 1013.8 |
| 20260901234025 | 96 | 174 | 1.7 | 7.0 | 0.00 | 0.00 | 0.00 | 37 | 1013.9 |
| 20260901233525 | 96 | 178 | 1.7 | 4.3 | 0.00 | 0.00 | 0.00 | 37 | 1013.8 |
| 20260901233055 | 96 | 0 | 0.9 | 5.2 | 0.00 | 0.00 | 0.00 | 37 | 1013.8 |
| 20260901232527 | 96 | 155 | 0.9 | 6.1 | 0.00 | 0.00 | 0.00 | 36 | 1013.8 |
| 20260901232027 | 97 | 183 | 3.5 | 6.1 | 0.00 | 0.00 | 0.00 | 35 | 1013.9 |
| 20260901231548 | 97 | 148 | 1.7 | 7.0 | 0.00 | 0.00 | 0.00 | 35 | 1013.8 |
| 20260901231026 | 97 | 178 | 1.7 | 7.0 | 0.00 | 0.00 | 0.00 | 35 | 1013.9 |
| 20260901230526 | 98 | 169 | 1.7 | 7.0 | 0.00 | 0.00 | 0.00 | 34 | 1013.9 |
| 20260901230046 | 98 | 187 | 0.9 | 6.1 | 0.00 | 0.00 | 0.00 | 34 | 1013.8 |
| 20260901225524 | 98 | 143 | 1.7 | 6.1 | 0.00 | 0.00 | 0.00 | 34 | 1013.9 |
| 20260901225024 | 98 | 173 | 2.6 | 7.8 | 0.00 | 0.00 | 0.00 | 33 | 1013.9 |
| 20260901224549 | 98 | 156 | 1.7 | 10.4 | 0.00 | 0.00 | 0.00 | 33 | 1013.9 |
| 20260901224028 | 98 | 206 | 1.7 | 13.0 | 0.00 | 0.00 | 0.00 | 33 | 1013.9 |
| 20260901223527 | 98 | 277 | 4.3 | 13.0 | 0.00 | 0.00 | 0.00 | 33 | 1013.9 |
| 20260901223051 | 98 | 88 | 2.6 | 6.1 | 0.00 | 0.00 | 0.00 | 33 | 1013.8 |
| 20260901222525 | 98 | 163 | 1.7 | 12.2 | 0.00 | 0.00 | 0.00 | 34 | 1013.9 |
| 20260901222023 | 98 | 125 | 0.9 | 12.2 | 0.00 | 0.00 | 0.00 | 34 | 1013.9 |
| 20260901221558 | 99 | 167 | 1.7 | 8.7 | 0.00 | 0.00 | 0.00 | 34 | 1013.8 |
| 20260901221024 | 98 | 0 | 2.6 | 9.6 | 0.00 | 0.00 | 0.00 | 34 | 1013.8 |
| 20260901220528 | 98 | 250 | 1.7 | 11.3 | 0.00 | 0.00 | 0.00 | 34 | 1013.9 |
| 20260901220052 | 98 | 180 | 3.5 | 11.3 | 0.00 | 0.00 | 0.00 | 34 | 1013.8 |
| 20260901215527 | 99 | 169 | 2.6 | 13.9 | 0.00 | 0.00 | 0.00 | 33 | 1013.8 |
| 20260901215026 | 98 | 157 | 1.7 | 13.9 | 0.00 | 0.00 | 0.00 | 34 | 1013.9 |
| 20260901214551 | 98 | 155 | 2.6 | 13.0 | 0.00 | 0.00 | 0.00 | 34 | 1013.9 |
| 20260901214025 | 98 | 159 | 2.6 | 10.4 | 0.00 | 0.00 | 0.00 | 34 | 1013.9 |
| 20260901213525 | 98 | 158 | 1.7 | 15.6 | 0.00 | 0.00 | 0.00 | 34 | 1013.8 |
| 20260901213048 | 99 | 314 | 1.7 | 15.6 | 0.00 | 0.00 | 0.00 | 33 | 1014.0 |
| 20260901212526 | 99 | 175 | 4.3 | 15.6 | 0.00 | 0.00 | 0.00 | 32 | 1014.0 |
| 20260901212025 | 99 | 242 | 2.6 | 10.4 | 0.00 | 0.00 | 0.00 | 33 | 1014.0 |
| 20260901211547 | 99 | 226 | 3.5 | 9.6 | 0.00 | 0.00 | 0.00 | 32 | 1014.0 |